| time (UTC) | temp C | wind direction | speed KPH | gust KPH | rain 1hr cm | rain 24hr cm | rain mn cm | humidity % | barometer mb |
| 20260505140206 | 20 | 112 | 6.4 | 8.0 | 0.00 | 0.00 | 0.00 | 72 | 1017.5 |
| 20260505130130 | 17 | 172 | 1.6 | 3.2 | 0.00 | 0.00 | 0.00 | 87 | 1017.8 |
| 20260505124619 | 15 | 128 | 0.0 | 0.0 | 0.00 | 0.00 | 0.00 | 91 | 1017.6 |
| 20260505124116 | 15 | 152 | 0.0 | 0.0 | 0.00 | 0.00 | 0.00 | 92 | 1017.7 |
| 20260505123612 | 14 | 140 | 0.0 | 0.0 | 0.00 | 0.00 | 0.00 | 93 | 1017.7 |
| 20260505123108 | 13 | 132 | 0.0 | 0.0 | 0.00 | 0.00 | 0.00 | 94 | 1017.7 |
| 20260505122605 | 13 | 136 | 0.0 | 0.0 | 0.00 | 0.00 | 0.00 | 95 | 1017.7 |
| 20260505122102 | 13 | 268 | 0.0 | 0.0 | 0.00 | 0.00 | 0.00 | 96 | 1017.6 |
| 20260505121553 | 13 | 136 | 0.0 | 0.0 | 0.00 | 0.00 | 0.00 | 98 | 1017.3 |
| 20260505121050 | 12 | 195 | 0.0 | 0.0 | 0.00 | 0.00 | 0.00 | 99 | 1017.2 |
| 20260505120546 | 12 | 141 | 0.0 | 0.0 | 0.00 | 0.00 | 0.00 | 99 | 1017.0 |
| 20260505120042 | 12 | 186 | 0.0 | 0.0 | 0.00 | 0.00 | 0.00 | 99 | 1017.4 |
| 20260505115536 | 11 | 296 | 0.0 | 0.0 | 0.00 | 0.00 | 0.00 | 99 | 1017.3 |
| 20260505115034 | 11 | 303 | 0.0 | 0.0 | 0.00 | 0.00 | 0.00 | 99 | 1017.1 |
| 20260505114531 | 11 | 289 | 0.0 | 0.0 | 0.00 | 0.00 | 0.00 | 99 | 1017.3 |
| 20260505114027 | 11 | 266 | 0.0 | 0.0 | 0.00 | 0.00 | 0.00 | 99 | 1017.2 |
| 20260505113524 | 10 | 265 | 0.0 | 0.0 | 0.00 | 0.00 | 0.00 | 99 | 1017.1 |
| 20260505113020 | 10 | 264 | 0.0 | 0.0 | 0.00 | 0.00 | 0.00 | 99 | 1017.1 |
| 20260505112517 | 10 | 247 | 0.0 | 0.0 | 0.00 | 0.00 | 0.00 | 99 | 1016.8 |
| 20260505112015 | 10 | 284 | 0.0 | 0.0 | 0.00 | 0.00 | 0.00 | 99 | 1016.9 |
| 20260505111508 | 10 | 284 | 0.0 | 0.0 | 0.00 | 0.00 | 0.00 | 99 | 1017.0 |
| 20260505111005 | 10 | 271 | 0.0 | 0.0 | 0.00 | 0.00 | 0.00 | 99 | 1016.9 |
| 20260505110502 | 10 | 308 | 0.0 | 0.0 | 0.00 | 0.00 | 0.00 | 99 | 1016.9 |
| 20260505101933 | 10 | 314 | 0.0 | 0.0 | 0.00 | 0.00 | 0.00 | 99 | 1016.4 |
| 20260505101427 | 10 | 314 | 0.0 | 0.0 | 0.00 | 0.00 | 0.00 | 99 | 1016.6 |
| 20260505100923 | 10 | 305 | 0.0 | 0.0 | 0.00 | 0.00 | 0.00 | 99 | 1016.5 |
| 20260505100420 | 10 | 306 | 0.0 | 0.0 | 0.00 | 0.00 | 0.00 | 99 | 1016.7 |
| 20260505095916 | 10 | 306 | 0.0 | 0.0 | 0.00 | 0.00 | 0.00 | 99 | 1016.5 |
| 20260505095413 | 10 | 305 | 0.0 | 0.0 | 0.00 | 0.00 | 0.00 | 99 | 1016.4 |
| 20260505094909 | 10 | 307 | 0.0 | 0.0 | 0.00 | 0.00 | 0.00 | 99 | 1016.5 |
| 20260505094406 | 10 | 297 | 0.0 | 0.0 | 0.00 | 0.00 | 0.00 | 99 | 1016.7 |
| 20260505093901 | 10 | 309 | 0.0 | 0.0 | 0.00 | 0.00 | 0.00 | 99 | 1016.4 |
| 20260505093359 | 10 | 309 | 0.0 | 0.0 | 0.00 | 0.00 | 0.00 | 99 | 1016.4 |
| 20260505092856 | 10 | 309 | 0.0 | 0.0 | 0.00 | 0.00 | 0.00 | 99 | 1016.6 |
| 20260505092354 | 10 | 309 | 0.0 | 0.0 | 0.00 | 0.00 | 0.00 | 99 | 1016.5 |
| 20260505091851 | 10 | 309 | 0.0 | 0.0 | 0.00 | 0.00 | 0.00 | 99 | 1016.3 |
| 20260505091349 | 10 | 309 | 0.0 | 0.0 | 0.00 | 0.00 | 0.00 | 99 | 1016.5 |
| 20260505090847 | 10 | 309 | 0.0 | 0.0 | 0.00 | 0.00 | 0.00 | 98 | 1016.5 |
| 20260505090345 | 10 | 309 | 0.0 | 0.0 | 0.00 | 0.00 | 0.00 | 98 | 1016.3 |
| 20260505085842 | 10 | 309 | 0.0 | 0.0 | 0.00 | 0.00 | 0.00 | 98 | 1016.2 |
| 20260505085340 | 10 | 309 | 0.0 | 0.0 | 0.00 | 0.00 | 0.00 | 98 | 1016.3 |
| 20260505084837 | 10 | 309 | 0.0 | 0.0 | 0.00 | 0.00 | 0.00 | 98 | 1016.4 |
| 20260505084336 | 10 | 309 | 0.0 | 0.0 | 0.00 | 0.00 | 0.00 | 98 | 1016.2 |
| 20260505083833 | 10 | 309 | 0.0 | 0.0 | 0.00 | 0.00 | 0.00 | 98 | 1016.3 |
| 20260505083330 | 10 | 309 | 0.0 | 0.0 | 0.00 | 0.00 | 0.00 | 97 | 1016.1 |
| 20260505082826 | 10 | 309 | 0.0 | 0.0 | 0.00 | 0.00 | 0.00 | 97 | 1016.1 |
| 20260505082323 | 10 | 309 | 0.0 | 0.0 | 0.00 | 0.00 | 0.00 | 97 | 1016.0 |
| 20260505081819 | 10 | 309 | 0.0 | 0.0 | 0.00 | 0.00 | 0.00 | 97 | 1016.2 |
| 20260505081316 | 10 | 309 | 0.0 | 0.0 | 0.00 | 0.00 | 0.00 | 97 | 1016.2 |
| 20260505080813 | 10 | 309 | 0.0 | 0.0 | 0.00 | 0.00 | 0.00 | 96 | 1016.4 |
| 20260505080309 | 10 | 309 | 0.0 | 0.0 | 0.00 | 0.00 | 0.00 | 96 | 1016.2 |
| 20260505075804 | 11 | 309 | 0.0 | 0.0 | 0.00 | 0.00 | 0.00 | 96 | 1016.1 |
| 20260505075304 | 11 | 309 | 0.0 | 0.0 | 0.00 | 0.00 | 0.00 | 96 | 1016.0 |
| 20260505074759 | 11 | 309 | 0.0 | 0.0 | 0.00 | 0.00 | 0.00 | 96 | 1016.2 |
| 20260505074256 | 11 | 309 | 0.0 | 0.0 | 0.00 | 0.00 | 0.00 | 96 | 1015.9 |
| 20260505073753 | 11 | 309 | 0.0 | 0.0 | 0.00 | 0.00 | 0.00 | 96 | 1016.0 |
| 20260505073251 | 11 | 309 | 0.0 | 0.0 | 0.00 | 0.00 | 0.00 | 95 | 1015.8 |
| 20260505072747 | 11 | 309 | 0.0 | 0.0 | 0.00 | 0.00 | 0.00 | 95 | 1016.0 |
| 20260505072243 | 11 | 309 | 0.0 | 0.0 | 0.00 | 0.00 | 0.00 | 95 | 1016.1 |
| 20260505071739 | 11 | 309 | 0.0 | 0.0 | 0.00 | 0.00 | 0.00 | 94 | 1016.2 |
| 20260505071236 | 11 | 309 | 0.0 | 0.0 | 0.00 | 0.00 | 0.00 | 94 | 1015.9 |
| 20260505070734 | 11 | 309 | 0.0 | 0.0 | 0.00 | 0.00 | 0.00 | 94 | 1016.1 |
| 20260505070230 | 11 | 309 | 0.0 | 0.0 | 0.00 | 0.00 | 0.00 | 94 | 1016.0 |
| 20260505065726 | 11 | 309 | 0.0 | 0.0 | 0.00 | 0.00 | 0.00 | 93 | 1015.8 |
| 20260505065223 | 11 | 309 | 0.0 | 0.0 | 0.00 | 0.00 | 0.00 | 93 | 1015.9 |
| 20260505064720 | 11 | 309 | 0.0 | 0.0 | 0.00 | 0.00 | 0.00 | 92 | 1016.3 |
| 20260505064218 | 11 | 309 | 0.0 | 0.0 | 0.00 | 0.00 | 0.00 | 92 | 1016.0 |
| 20260505063715 | 12 | 309 | 0.0 | 0.0 | 0.00 | 0.00 | 0.00 | 92 | 1016.2 |
| 20260505063211 | 12 | 309 | 0.0 | 0.0 | 0.00 | 0.00 | 0.00 | 91 | 1016.1 |
| 20260505062708 | 12 | 308 | 0.0 | 0.0 | 0.00 | 0.00 | 0.00 | 90 | 1016.0 |
| 20260505062206 | 12 | 309 | 0.0 | 0.0 | 0.00 | 0.00 | 0.00 | 89 | 1016.1 |
| 20260505061702 | 12 | 309 | 0.0 | 0.0 | 0.00 | 0.00 | 0.00 | 88 | 1016.0 |
| 20260505061200 | 12 | 309 | 0.0 | 0.0 | 0.00 | 0.00 | 0.00 | 87 | 1016.3 |
| 20260505060657 | 12 | 309 | 0.0 | 0.0 | 0.00 | 0.00 | 0.00 | 86 | 1016.1 |
| 20260505060154 | 12 | 309 | 0.0 | 0.0 | 0.00 | 0.00 | 0.00 | 85 | 1016.4 |
| 20260505055649 | 13 | 309 | 0.0 | 0.0 | 0.00 | 0.00 | 0.00 | 84 | 1016.1 |
| 20260505055146 | 13 | 309 | 0.0 | 0.0 | 0.00 | 0.00 | 0.00 | 83 | 1016.4 |
| 20260505054643 | 13 | 309 | 0.0 | 0.0 | 0.00 | 0.00 | 0.00 | 81 | 1016.5 |
| 20260505054141 | 14 | 308 | 0.0 | 0.0 | 0.00 | 0.00 | 0.00 | 81 | 1016.4 |
| 20260505053639 | 14 | 66 | 0.0 | 1.6 | 0.00 | 0.00 | 0.00 | 80 | 1016.3 |
| 20260505053135 | 14 | 331 | 0.0 | 0.0 | 0.00 | 0.00 | 0.00 | 79 | 1016.7 |
| 20260505052632 | 15 | 283 | 0.0 | 0.0 | 0.00 | 0.00 | 0.00 | 78 | 1016.6 |
| 20260505052129 | 15 | 176 | 1.6 | 3.2 | 0.00 | 0.00 | 0.00 | 77 | 1016.4 |
| 20260505051626 | 15 | 146 | 1.6 | 3.2 | 0.00 | 0.00 | 0.00 | 77 | 1016.3 |
| 20260505051125 | 15 | 146 | 3.2 | 3.2 | 0.00 | 0.00 | 0.00 | 77 | 1016.5 |
| 20260505050622 | 15 | 168 | 3.2 | 4.8 | 0.00 | 0.00 | 0.00 | 76 | 1016.4 |
| 20260505050120 | 15 | 142 | 3.2 | 3.2 | 0.00 | 0.00 | 0.00 | 75 | 1016.4 |
| 20260505041549 | 16 | 166 | 3.2 | 3.2 | 0.00 | 0.00 | 0.00 | 72 | 1016.7 |
| 20260505041047 | 16 | 152 | 3.2 | 4.8 | 0.00 | 0.00 | 0.00 | 71 | 1016.6 |
| 20260505040544 | 16 | 105 | 4.8 | 4.8 | 0.00 | 0.00 | 0.00 | 71 | 1016.6 |
| 20260505040041 | 16 | 150 | 4.8 | 4.8 | 0.00 | 0.00 | 0.00 | 70 | 1016.7 |
| 20260505035537 | 16 | 155 | 3.2 | 3.2 | 0.00 | 0.00 | 0.00 | 70 | 1016.6 |
| 20260505035034 | 16 | 129 | 3.2 | 3.2 | 0.00 | 0.00 | 0.00 | 70 | 1016.6 |
| 20260505034530 | 16 | 138 | 3.2 | 3.2 | 0.00 | 0.00 | 0.00 | 71 | 1016.5 |
| 20260505034028 | 16 | 134 | 3.2 | 3.2 | 0.00 | 0.00 | 0.00 | 70 | 1016.6 |
| 20260505033525 | 16 | 150 | 3.2 | 3.2 | 0.00 | 0.00 | 0.00 | 70 | 1016.7 |
| 20260505033023 | 16 | 149 | 6.4 | 9.7 | 0.00 | 0.00 | 0.00 | 70 | 1016.7 |
| 20260505032520 | 17 | 168 | 4.8 | 4.8 | 0.00 | 0.00 | 0.00 | 69 | 1016.7 |
| 20260505032016 | 17 | 175 | 4.8 | 4.8 | 0.00 | 0.00 | 0.00 | 68 | 1016.8 |
| 20260505031514 | 17 | 118 | 4.8 | 4.8 | 0.00 | 0.00 | 0.00 | 68 | 1016.9 |
| 20260505031010 | 17 | 133 | 4.8 | 4.8 | 0.00 | 0.00 | 0.00 | 67 | 1016.9 |
| 20260505030507 | 17 | 121 | 1.6 | 3.2 | 0.00 | 0.00 | 0.00 | 69 | 1016.8 |
| 20260505030003 | 17 | 111 | 4.8 | 4.8 | 0.00 | 0.00 | 0.00 | 68 | 1016.8 |
| 20260505025459 | 17 | 170 | 3.2 | 3.2 | 0.00 | 0.00 | 0.00 | 68 | 1017.0 |
| 20260505024958 | 17 | 111 | 1.6 | 3.2 | 0.00 | 0.00 | 0.00 | 69 | 1016.8 |
| 20260505024454 | 17 | 171 | 3.2 | 3.2 | 0.00 | 0.00 | 0.00 | 69 | 1016.8 |
| 20260505023952 | 17 | 119 | 3.2 | 4.8 | 0.00 | 0.00 | 0.00 | 68 | 1016.8 |
| 20260505023449 | 17 | 160 | 1.6 | 3.2 | 0.00 | 0.00 | 0.00 | 68 | 1016.7 |
| 20260505022946 | 17 | 146 | 1.6 | 3.2 | 0.00 | 0.00 | 0.00 | 69 | 1016.6 |
| 20260505022444 | 17 | 127 | 1.6 | 3.2 | 0.00 | 0.00 | 0.00 | 68 | 1016.7 |
| 20260505021941 | 17 | 155 | 4.8 | 8.0 | 0.00 | 0.00 | 0.00 | 69 | 1016.4 |
| 20260505021437 | 17 | 146 | 3.2 | 3.2 | 0.00 | 0.00 | 0.00 | 68 | 1016.5 |
| 20260505020933 | 18 | 136 | 3.2 | 3.2 | 0.00 | 0.00 | 0.00 | 68 | 1016.5 |
| 20260505020428 | 18 | 155 | 4.8 | 4.8 | 0.00 | 0.00 | 0.00 | 68 | 1016.3 |
| 20260505015925 | 18 | 128 | 1.6 | 3.2 | 0.00 | 0.00 | 0.00 | 67 | 1016.6 |
| 20260505015422 | 18 | 145 | 1.6 | 3.2 | 0.00 | 0.00 | 0.00 | 67 | 1016.3 |
| 20260505014920 | 18 | 148 | 4.8 | 4.8 | 0.00 | 0.00 | 0.00 | 66 | 1016.2 |
| 20260505014416 | 18 | 131 | 6.4 | 8.0 | 0.00 | 0.00 | 0.00 | 66 | 1016.1 |
| 20260505013914 | 18 | 115 | 4.8 | 4.8 | 0.00 | 0.00 | 0.00 | 65 | 1016.1 |
| 20260505013410 | 18 | 118 | 4.8 | 4.8 | 0.00 | 0.00 | 0.00 | 65 | 1016.2 |
| 20260505012908 | 18 | 148 | 8.0 | 9.7 | 0.00 | 0.00 | 0.00 | 64 | 1016.1 |
| 20260505012406 | 18 | 156 | 4.8 | 8.0 | 0.00 | 0.00 | 0.00 | 64 | 1016.2 |
| 20260505011902 | 18 | 141 | 6.4 | 8.0 | 0.00 | 0.00 | 0.00 | 64 | 1016.0 |
| 20260505011359 | 17 | 171 | 4.8 | 4.8 | 0.00 | 0.00 | 0.00 | 64 | 1016.2 |
| 20260505010855 | 17 | 135 | 3.2 | 3.2 | 0.00 | 0.00 | 0.00 | 66 | 1016.1 |
| 20260505010351 | 17 | 154 | 4.8 | 4.8 | 0.00 | 0.00 | 0.00 | 64 | 1016.0 |
| 20260505005847 | 16 | 259 | 0.0 | 0.0 | 0.00 | 0.00 | 0.00 | 70 | 1015.8 |
| 20260505005344 | 16 | 295 | 0.0 | 0.0 | 0.00 | 0.00 | 0.00 | 68 | 1015.4 |
| 20260505004842 | 17 | 295 | 0.0 | 0.0 | 0.00 | 0.00 | 0.00 | 68 | 1015.6 |
| 20260505004338 | 17 | 295 | 0.0 | 0.0 | 0.00 | 0.00 | 0.00 | 64 | 1015.6 |
| 20260505003836 | 17 | 295 | 0.0 | 0.0 | 0.00 | 0.00 | 0.00 | 65 | 1015.3 |
| 20260505003333 | 17 | 295 | 0.0 | 0.0 | 0.00 | 0.00 | 0.00 | 64 | 1015.3 |
| 20260505002828 | 17 | 295 | 0.0 | 0.0 | 0.00 | 0.00 | 0.00 | 62 | 1015.3 |
| 20260505002326 | 18 | 295 | 0.0 | 0.0 | 0.00 | 0.00 | 0.00 | 62 | 1015.3 |
| 20260505001824 | 18 | 294 | 0.0 | 0.0 | 0.00 | 0.00 | 0.00 | 61 | 1015.3 |
| 20260505001320 | 18 | 294 | 0.0 | 0.0 | 0.00 | 0.00 | 0.00 | 60 | 1015.2 |
| 20260505000818 | 19 | 293 | 0.0 | 0.0 | 0.00 | 0.00 | 0.00 | 57 | 1015.0 |
| 20260505000316 | 19 | 292 | 0.0 | 0.0 | 0.00 | 0.00 | 0.00 | 54 | 1015.1 |
| 20260504235812 | 20 | 292 | 0.0 | 0.0 | 0.00 | 0.00 | 0.00 | 53 | 1015.0 |
| 20260504235309 | 20 | 292 | 0.0 | 0.0 | 0.00 | 0.00 | 0.00 | 53 | 1015.0 |
| 20260504234806 | 21 | 292 | 0.0 | 0.0 | 0.00 | 0.00 | 0.00 | 50 | 1014.9 |
| 20260504234304 | 21 | 292 | 0.0 | 0.0 | 0.00 | 0.00 | 0.00 | 53 | 1015.0 |
| 20260504233800 | 22 | 292 | 0.0 | 0.0 | 0.00 | 0.00 | 0.00 | 46 | 1014.9 |
| 20260504233255 | 22 | 292 | 0.0 | 0.0 | 0.00 | 0.00 | 0.00 | 44 | 1015.0 |
| 20260504232752 | 22 | 292 | 0.0 | 0.0 | 0.00 | 0.00 | 0.00 | 43 | 1015.0 |
| 20260504232249 | 23 | 292 | 0.0 | 0.0 | 0.00 | 0.00 | 0.00 | 43 | 1015.0 |
| 20260504231746 | 23 | 292 | 0.0 | 0.0 | 0.00 | 0.00 | 0.00 | 43 | 1015.2 |
| 20260504231243 | 23 | 270 | 0.0 | 0.0 | 0.00 | 0.00 | 0.00 | 43 | 1015.1 |
| 20260504230738 | 23 | 309 | 0.0 | 0.0 | 0.00 | 0.00 | 0.00 | 40 | 1015.2 |
| 20260504230237 | 23 | 281 | 0.0 | 0.0 | 0.00 | 0.00 | 0.00 | 42 | 1015.0 |
| 20260504225735 | 24 | 16 | 3.2 | 4.8 | 0.00 | 0.00 | 0.00 | 39 | 1015.0 |
| 20260504225232 | 24 | 144 | 4.8 | 4.8 | 0.00 | 0.00 | 0.00 | 37 | 1015.0 |
| 20260504224729 | 24 | 180 | 4.8 | 4.8 | 0.00 | 0.00 | 0.00 | 38 | 1015.0 |
| 20260504224226 | 24 | 87 | 3.2 | 4.8 | 0.00 | 0.00 | 0.00 | 37 | 1015.1 |
| 20260504223722 | 24 | 153 | 1.6 | 3.2 | 0.00 | 0.00 | 0.00 | 37 | 1015.0 |
| 20260504223218 | 24 | 173 | 4.8 | 4.8 | 0.00 | 0.00 | 0.00 | 40 | 1015.0 |
| 20260504222715 | 24 | 190 | 1.6 | 3.2 | 0.00 | 0.00 | 0.00 | 40 | 1014.9 |
| 20260504222212 | 24 | 155 | 4.8 | 4.8 | 0.00 | 0.00 | 0.00 | 37 | 1015.0 |
| 20260504221709 | 24 | 171 | 0.0 | 0.0 | 0.00 | 0.00 | 0.00 | 39 | 1015.0 |
| 20260504221206 | 25 | 146 | 4.8 | 4.8 | 0.00 | 0.00 | 0.00 | 36 | 1015.1 |
| 20260504220703 | 25 | 79 | 3.2 | 4.8 | 0.00 | 0.00 | 0.00 | 35 | 1015.0 |
| 20260504220201 | 26 | 184 | 3.2 | 4.8 | 0.00 | 0.00 | 0.00 | 33 | 1015.1 |
| 20260504215656 | 26 | 191 | 4.8 | 9.7 | 0.00 | 0.00 | 0.00 | 37 | 1015.0 |
| 20260504215154 | 25 | 157 | 4.8 | 4.8 | 0.00 | 0.00 | 0.00 | 37 | 1014.8 |
| 20260504214649 | 25 | 136 | 8.0 | 9.7 | 0.00 | 0.00 | 0.00 | 36 | 1015.0 |
| 20260504214146 | 25 | 181 | 3.2 | 4.8 | 0.00 | 0.00 | 0.00 | 36 | 1014.7 |
| 20260504213643 | 26 | 246 | 6.4 | 8.0 | 0.00 | 0.00 | 0.00 | 37 | 1014.9 |
| 20260504213140 | 26 | 144 | 11.3 | 12.9 | 0.00 | 0.00 | 0.00 | 34 | 1014.6 |
| 20260504212636 | 26 | 123 | 4.8 | 8.0 | 0.00 | 0.00 | 0.00 | 35 | 1014.8 |
| 20260504212133 | 27 | 171 | 4.8 | 8.0 | 0.00 | 0.00 | 0.00 | 35 | 1014.7 |
| 20260504211631 | 26 | 226 | 3.2 | 4.8 | 0.00 | 0.00 | 0.00 | 35 | 1014.8 |
| 20260504211126 | 26 | 119 | 1.6 | 1.6 | 0.00 | 0.00 | 0.00 | 34 | 1015.0 |
| 20260504210625 | 26 | 180 | 4.8 | 8.0 | 0.00 | 0.00 | 0.00 | 31 | 1014.8 |
| 20260504210120 | 26 | 175 | 4.8 | 4.8 | 0.00 | 0.00 | 0.00 | 34 | 1014.9 |
| 20260504205618 | 26 | 149 | 3.2 | 3.2 | 0.00 | 0.00 | 0.00 | 34 | 1015.2 |
| 20260504205116 | 26 | 162 | 8.0 | 9.7 | 0.00 | 0.00 | 0.00 | 35 | 1014.9 |
| 20260504204614 | 26 | 152 | 4.8 | 8.0 | 0.00 | 0.00 | 0.00 | 34 | 1015.0 |
| 20260504204113 | 26 | 182 | 6.4 | 9.7 | 0.00 | 0.00 | 0.00 | 36 | 1015.1 |
| 20260504203611 | 26 | 148 | 8.0 | 9.7 | 0.00 | 0.00 | 0.00 | 35 | 1014.9 |
| 20260504203108 | 26 | 206 | 3.2 | 8.0 | 0.00 | 0.00 | 0.00 | 38 | 1015.1 |
| 20260504202603 | 27 | 120 | 6.4 | 8.0 | 0.00 | 0.00 | 0.00 | 37 | 1015.0 |
| 20260504202100 | 26 | 274 | 1.6 | 1.6 | 0.00 | 0.00 | 0.00 | 35 | 1015.1 |
| 20260504201557 | 26 | 222 | 3.2 | 3.2 | 0.00 | 0.00 | 0.00 | 32 | 1015.1 |
| 20260504201055 | 26 | 239 | 4.8 | 4.8 | 0.00 | 0.00 | 0.00 | 35 | 1015.3 |
| 20260504200551 | 27 | 130 | 4.8 | 4.8 | 0.00 | 0.00 | 0.00 | 33 | 1015.4 |
| 20260504200048 | 26 | 177 | 6.4 | 9.7 | 0.00 | 0.00 | 0.00 | 35 | 1015.4 |
| 20260504195544 | 26 | 174 | 4.8 | 4.8 | 0.00 | 0.00 | 0.00 | 36 | 1015.3 |
| 20260504195041 | 26 | 128 | 3.2 | 3.2 | 0.00 | 0.00 | 0.00 | 36 | 1015.3 |
| 20260504194537 | 27 | 103 | 4.8 | 4.8 | 0.00 | 0.00 | 0.00 | 34 | 1015.5 |
| 20260504194033 | 26 | 235 | 1.6 | 1.6 | 0.00 | 0.00 | 0.00 | 32 | 1015.7 |
| 20260504193529 | 26 | 52 | 0.0 | 1.6 | 0.00 | 0.00 | 0.00 | 34 | 1015.7 |
| 20260504193028 | 26 | 304 | 4.8 | 4.8 | 0.00 | 0.00 | 0.00 | 37 | 1015.7 |
| 20260504192526 | 26 | 202 | 4.8 | 4.8 | 0.00 | 0.00 | 0.00 | 34 | 1015.8 |
| 20260504192024 | 26 | 201 | 3.2 | 3.2 | 0.00 | 0.00 | 0.00 | 36 | 1015.9 |
| 20260504191522 | 26 | 215 | 1.6 | 1.6 | 0.00 | 0.00 | 0.00 | 33 | 1015.8 |
| 20260504191018 | 26 | 340 | 3.2 | 3.2 | 0.00 | 0.00 | 0.00 | 35 | 1015.9 |
| 20260504190514 | 26 | 153 | 4.8 | 4.8 | 0.00 | 0.00 | 0.00 | 34 | 1016.2 |
| 20260504190010 | 25 | 176 | 6.4 | 9.7 | 0.00 | 0.00 | 0.00 | 36 | 1016.1 |
| 20260504185507 | 25 | 139 | 3.2 | 3.2 | 0.00 | 0.00 | 0.00 | 35 | 1016.4 |
| 20260504185004 | 26 | 164 | 9.7 | 11.3 | 0.00 | 0.00 | 0.00 | 35 | 1016.3 |
| 20260504184459 | 26 | 352 | 4.8 | 8.0 | 0.00 | 0.00 | 0.00 | 35 | 1016.4 |
| 20260504183955 | 25 | 329 | 1.6 | 3.2 | 0.00 | 0.00 | 0.00 | 36 | 1016.4 |
| 20260504183452 | 25 | 287 | 0.0 | 1.6 | 0.00 | 0.00 | 0.00 | 37 | 1016.6 |
| 20260504182950 | 25 | 133 | 6.4 | 8.0 | 0.00 | 0.00 | 0.00 | 37 | 1016.7 |
| 20260504182446 | 25 | 207 | 4.8 | 4.8 | 0.00 | 0.00 | 0.00 | 33 | 1016.8 |
| 20260504181944 | 25 | 355 | 0.0 | 1.6 | 0.00 | 0.00 | 0.00 | 33 | 1016.7 |
| 20260504181441 | 25 | 101 | 4.8 | 8.0 | 0.00 | 0.00 | 0.00 | 33 | 1016.9 |
| 20260504180939 | 25 | 203 | 1.6 | 3.2 | 0.00 | 0.00 | 0.00 | 36 | 1016.7 |
| 20260504180438 | 25 | 149 | 4.8 | 8.0 | 0.00 | 0.00 | 0.00 | 34 | 1016.7 |
| 20260504175936 | 25 | 111 | 4.8 | 8.0 | 0.00 | 0.00 | 0.00 | 35 | 1016.9 |
| 20260504175433 | 25 | 169 | 1.6 | 3.2 | 0.00 | 0.00 | 0.00 | 37 | 1016.8 |
| 20260504174930 | 25 | 170 | 3.2 | 3.2 | 0.00 | 0.00 | 0.00 | 37 | 1017.0 |
| 20260504174427 | 25 | 206 | 4.8 | 4.8 | 0.00 | 0.00 | 0.00 | 35 | 1017.0 |
| 20260504173925 | 24 | 308 | 1.6 | 3.2 | 0.00 | 0.00 | 0.00 | 39 | 1016.9 |
| 20260504173421 | 24 | 126 | 8.0 | 9.7 | 0.00 | 0.00 | 0.00 | 35 | 1017.0 |
| 20260504172919 | 25 | 134 | 8.0 | 11.3 | 0.00 | 0.00 | 0.00 | 35 | 1017.1 |
| 20260504172415 | 25 | 218 | 3.2 | 3.2 | 0.00 | 0.00 | 0.00 | 36 | 1017.1 |
| 20260504171911 | 25 | 121 | 8.0 | 9.7 | 0.00 | 0.00 | 0.00 | 37 | 1017.2 |
| 20260504171409 | 25 | 146 | 3.2 | 3.2 | 0.00 | 0.00 | 0.00 | 39 | 1017.4 |
| 20260504170905 | 25 | 232 | 1.6 | 1.6 | 0.00 | 0.00 | 0.00 | 36 | 1017.3 |
| 20260504170402 | 25 | 194 | 3.2 | 4.8 | 0.00 | 0.00 | 0.00 | 38 | 1017.3 |
| 20260504160321 | 23 | 319 | 3.2 | 4.8 | 0.00 | 0.00 | 0.00 | 39 | 1017.9 |
| 20260504150745 | 22 | 182 | 4.8 | 8.0 | 0.00 | 0.00 | 0.00 | 42 | 1018.4 |
| 20260504150242 | 22 | 192 | 3.2 | 3.2 | 0.00 | 0.00 | 0.00 | 41 | 1018.4 |